Regional Weather Roundup
Issued by NWS

Home | Current Version | Previous Version | Graphics & Text | Print | Product List | Glossary On
Versions: 1 2 3 4 5 6 7 8 9 10 11 12 13 14 15 16 17 18 19 20 21 22 23 24 25 26 27 28 29 30 31 32 33 34 35 36 37 38 39 40 41 42 43 44 45 46 47 48 49 50
000
ASUS45 KTFX 271210
RWRMT
MONTANA REGIONAL WEATHER ROUNDUP
NATIONAL WEATHER SERVICE GREAT FALLS MT
600 AM MDT WED JUL 27 2016

NOTE: "FAIR" INDICATES FEW OR NO CLOUDS BELOW 12000 FEET WITH NO
SIGNIFICANT WEATHER AND/OR OBSTRUCTIONS TO VISIBILITY.

MTZ001>007-043-271300-
WEST OF THE DIVIDE

CITY           SKY/WX    TMP DP  RH WIND       PRES   REMARKS
KALISPELL      PTCLDY    54  51  90 N7        30.09
MISSOULA       CLEAR     57  50  77 CALM      30.13R
BUTTE          CLEAR     45  38  76 CALM      30.25R
MULLAN PASS    PTCLDY    61  43  51 SE5       30.24S
ANACONDA         N/A     52  45  76 S6        30.20S
DEER LODGE       N/A     48  46  93 CALM      30.22S
EUREKA           N/A     55  52  88 CALM      30.13R
HAMILTON         N/A     61  46  59 CALM      30.14R
LIBBY            N/A     54  48  82 CALM      30.11R
PLAINS           N/A     55  47  74 CALM      30.10R
RONAN            N/A     52  48  86 CALM      30.14R
$$

MTZ008-052>055-271300-
SOUTHWEST MONTANA

CITY           SKY/WX    TMP DP  RH WIND       PRES   REMARKS
BOZEMAN        CLEAR     48  43  82 SE3       30.18S
DILLON         CLEAR     48  40  73 S9        30.21S
W YELLOWSTONE  CLOUDY    37  34  87 CALM      30.32S
ENNIS          CLEAR     45  39  81 CALM      30.27S
THREE FORKS      N/A     50  50 100 CALM      30.15R
TWIN BRIDGES     N/A     47  38  71 SE3       30.18S
$$

MTZ009-010-012-014-046-048-049-054-271300-
EAST SLOPES AND CENTRAL MONTANA

CITY           SKY/WX    TMP DP  RH WIND       PRES   REMARKS
CUT BANK       CLEAR     51  50  96 N10       30.14S
GREAT FALLS    CLEAR     54  52  93 E6        30.16R
MALMSTROM AFB  CLEAR     54  52  93 SE2       30.17R
HELENA         CLEAR     56  51  84 CALM      30.15R
CHOTEAU          N/A     54  52  94 CALM      30.18R
CONRAD           N/A     49  49 100 CALM      30.16R
$$

MTZ011-013-016-021-045-047-050-051-271300-
NORTH CENTRAL MONTANA

CITY           SKY/WX    TMP DP  RH WIND       PRES   REMARKS
HAVRE          CLOUDY    59  58  96 CALM      30.11S
LEWISTOWN      CLEAR     55  51  86 S3        30.17S
N BAR RANCH      N/A     52  50  93 W6        30.20S
CHINOOK          N/A     61  61 100 E3        30.11S
$$

MTZ017>020-022>027-061-062-271300-
NORTHEAST MONTANA

CITY           SKY/WX    TMP DP  RH WIND       PRES   REMARKS
GLASGOW        LGT RAIN  62  60  93 VRB6      30.12R
JORDAN           N/A     61  60  97 N8        30.10R
SIDNEY         LGT RAIN  64  59  83 NE3       30.10F
WOLF POINT     CLOUDY    64  61  90 N6        30.09S
PLENTYWOOD       N/A     61  55  82 NE5       30.13R
SCOBEY           N/A     61  52  72 CALM      30.11R
$$

MTZ028>42-056>058-271300-
SOUTHCENTRAL AND SOUTHEAST MONTANA

CITY           SKY/WX    TMP DP  RH WIND       PRES   REMARKS
BAKER          CLOUDY    61  59  93 E6        30.13F
BILLINGS       PTCLDY    61  57  87 NW7       30.13R
LIVINGSTON     CLEAR     49  42  77 CALM      30.18S
MILES CITY     PTCLDY    65  58  78 E10       30.08S
EKALAKA          N/A     61  57  86 E6        30.10F
FORSYTH          N/A     64  61  88 E7        30.07R
LAUREL           N/A     61  53  74 NW2       30.11R
ROUNDUP          N/A     59  53  80 CALM      30.04S
$$

REGIONAL REPORTS...DAKOTAS

CITY           SKY/WX    TMP DP  RH WIND       PRES   REMARKS
WILLISTON      CLOUDY    62  54  74 NE5       30.12F
MINOT          CLEAR     59  55  87 N7        30.11S
DICKINSON      PTCLDY    54  53  97 W5        30.12R FOG
BEACH          CLOUDY    59  59 100 N3        30.17R
CROSBY           N/A     52  52 100 N3        30.16S
WATFORD CITY     N/A    N/A N/A N/A MISG        N/A
BISMARCK       CLEAR     59  58  96 NE5       30.08F
GRAND FORKS    CLOUDY    61  58  90 NW7       30.04S
FARGO          MOCLDY    65  61  87 N10       29.99S
BUFFALO SD       N/A     61  60  97 NE6       30.06R
RAPID CITY     CLOUDY    63  61  93 N6        30.12F
$$

REGIONAL REPORTS...WYOMING/IDAHO/WASHINGTON

CITY           SKY/WX    TMP DP  RH WIND       PRES   REMARKS
GILLETTE       CLOUDY    65  52  62 VRB3      30.12R
SHERIDAN       CLOUDY    64  52  64 W12       30.13R
BUFFALO WY     CLOUDY    63  50  62 N5        30.20R
CODY           CLEAR     59  43  55 S5        30.21R
YELLOWSTONE LA   N/A     40  35  83 CALM      30.39S
IDAHO FALLS    CLEAR     49  43  80 N6        30.16R
SALMON         CLEAR     48  43  81 CALM      30.17R
BOISE          CLEAR     69  43  38 SE8       30.01R
SPOKANE        PTCLDY    65  53  65 NE6       30.04S
$$

REGIONAL REPORTS...ALBERTA

CITY           SKY/WX    TMP DP  RH WIND       PRES   REMARKS
EDMONTON       PTCLDY    54  52  94 CALM      30.10R
CALGARY        PTCLDY    59  54  82 CALM      30.16R
LETHBRIDGE     MOCLDY    54  54 100 W6        30.12S
MEDICINE HAT   MOCLDY    61  61 100 N3        30.11S FOG
WATERTON GATE    N/A     48  48 100 SW6         N/A
CARDSTON         N/A     52  48  87 CALM        N/A
MILK RIVER       N/A     54  52  94 NW7         N/A
$$

REGIONAL REPORTS...SASKATCHEWAN

CITY           SKY/WX    TMP DP  RH WIND       PRES   REMARKS
SWIFT CURRENT  PTCLDY    55  52  88 E9        30.15R
REGINA         PTCLDY    55  52  88 NE5       30.16R
SASKATOON      PTCLDY    50  50 100 SW3       30.18R
CYPRESS HILLS    N/A     55  52  88 SE5         N/A
VAL MARIE        N/A     61  57  88 NE3         N/A
ROCKGLEN         N/A     55  54  94 E2          N/A
$$



USA.gov is the U.S. government's official web portal to all federal, state and local government web resources and services.